Theta_e
315 317 318 319 319 319 319 318 318 318 319 316 317 317 317 317 316 316 316 315 315 315 315 310 307 306 304 301 300 301 301 301 299 298 296 296 296 296 296 296 297 298 297 296
316 316 317 317 316 317 318 318 318 319 319 314 316 316 317 317 316 315 315 314 315 315 314 309 307 305 303 301 302 301 301 300 299 297 296 296 295 295 295 296 297 297 296 296
316 317 314 316 317 316 317 317 318 319 319 315 315 316 317 316 314 314 313 313 313 313 313 309 306 303 302 302 302 302 301 300 299 297 296 296 295 294 294 295 296 296 295 295
316 315 315 315 315 316 317 317 318 318 318 319 314 317 317 317 316 315 313 313 314 312 310 308 305 303 304 304 303 302 301 300 299 298 297 295 295 294 293 294 296 296 295 293
315 315 313 315 316 316 317 312 315 316 316 318 317 317 317 313 314 314 314 314 315 313 310 308 306 308 307 305 305 303 302 300 299 298 297 296 294 294 293 294 295 295 293 293
313 309 312 315 309 312 310 312 312 312 314 318 317 318 317 317 315 315 315 315 315 312 309 307 307 307 307 305 305 303 303 301 299 298 296 295 294 293 293 293 294 293 293 292
315 313 311 309 312 309 311 315 318 322 321 320 318 317 318 317 315 315 315 315 314 311 309 308 306 308 307 307 306 302 303 303 300 297 296 295 294 293 292 292 293 293 293 291
316 316 312 310 314 317 312 316 320 325 320 320 313 317 317 317 316 314 314 314 312 310 309 309 309 309 309 308 306 303 304 304 300 297 295 294 293 292 291 291 292 292 291 290
315 315 308 310 310 314 313 313 315 320 319 319 317 318 319 318 315 314 313 311 311 309 308 310 309 310 309 308 308 308 304 302 301 298 295 294 292 291 291 291 291 291 290 289
314 315 313 305 305 307 310 311 315 315 322 319 316 317 317 318 316 314 313 312 312 310 308 308 309 309 310 309 308 306 303 302 300 298 296 294 292 291 290 290 290 290 289 288
313 315 313 306 308 312 308 310 310 311 317 318 318 317 315 315 315 314 315 313 313 312 310 309 309 309 309 309 307 306 304 302 299 297 295 293 291 290 289 290 290 289 288 288
312 314 315 314 313 310 311 312 313 314 314 314 315 316 314 314 314 313 313 312 313 312 311 311 310 310 310 311 308 305 303 300 299 297 294 292 290 289 289 289 289 289 288 288
311 313 315 314 310 305 308 311 311 313 313 314 316 316 314 314 314 314 312 312 311 310 310 310 309 309 310 309 308 306 303 301 297 294 292 291 289 289 289 289 289 288 288 288
311 313 313 313 314 313 312 310 310 311 312 313 313 313 314 314 313 313 313 313 312 311 310 310 309 308 308 308 305 303 301 299 296 294 291 290 288 289 289 288 288 288 287 287
309 312 312 314 313 313 312 313 311 310 310 311 312 313 313 313 313 313 313 312 311 311 310 310 308 308 307 307 305 302 300 298 295 292 290 289 288 288 288 288 288 287 287 286
309 311 311 312 311 311 311 311 312 312 312 312 312 310 311 311 311 311 311 311 310 310 309 309 309 308 307 307 306 304 300 296 294 291 289 287 288 288 288 288 288 287 286 285
309 310 312 313 312 312 313 313 312 312 312 313 313 313 313 313 313 313 312 312 311 311 310 309 309 308 307 307 307 304 300 295 293 289 288 287 288 288 288 288 287 286 285 285
312 310 311 315 314 315 313 312 312 312 312 313 313 312 312 313 313 312 311 311 311 310 309 309 308 308 307 306 304 301 298 295 292 289 288 287 287 287 288 287 286 286 285 285
311 312 314 314 315 314 312 313 312 313 313 312 312 312 312 311 310 310 310 310 309 309 309 308 308 307 307 305 303 299 294 291 290 289 287 286 287 287 287 286 286 285 284 283
310 311 312 314 315 316 313 312 311 311 312 311 310 310 310 309 310 310 310 309 309 309 309 308 309 307 306 304 303 301 298 293 289 289 287 286 286 286 286 286 285 284 283 282
311 310 312 312 314 314 312 311 309 313 314 311 310 309 309 309 309 310 309 309 309 309 308 308 308 308 307 305 303 301 298 296 292 289 286 286 286 286 286 285 284 283 282 282
314 314 312 312 313 314 312 311 312 312 312 312 311 311 310 310 310 309 309 308 308 308 307 307 308 307 306 303 300 299 300 295 290 288 286 285 286 286 285 285 284 282 281 280
314 312 311 313 313 311 311 312 311 311 312 311 311 311 311 311 309 308 308 308 308 308 306 305 305 305 304 302 299 296 294 293 289 285 285 285 285 286 285 283 282 280 279 279
301 303 308 306 308 308 308 308 308 309 308 308 308 308 309 310 309 309 309 307 307 307 306 303 302 302 301 299 295 291 291 289 286 284 284 284 286 285 284 282 280 279 278 279
297 298 299 299 298 303 304 305 303 304 304 303 304 305 305 306 307 308 310 309 307 307 305 304 304 300 298 295 292 289 288 288 285 285 285 286 285 284 282 280 278 278 277 276
295 295 296 297 299 299 300 296 296 296 297 297 298 299 302 304 306 306 306 307 308 306 306 305 303 300 296 292 290 288 286 285 284 285 283 284 284 283 282 279 278 277 276 275
Wind_Speed
7 8 16 18 18 22 22 20 22 23 10 9 19 23 23 28 31 32 35 36 32 30 25 26 29 32 35 34 36 35 36 35 35 33 30 29 28 26 22 19 17 16 14 15
6 16 22 16 9 15 18 20 25 22 10 5 16 23 22 22 29 35 34 34 25 19 18 21 27 33 37 38 39 38 37 37 36 34 32 30 28 27 25 23 21 19 17 16
22 22 4 4 13 14 18 21 22 21 15 13 16 21 18 13 20 26 35 28 21 19 19 21 27 32 35 39 40 40 40 39 38 36 35 32 29 27 26 25 23 20 17 19
18 21 17 15 19 16 19 9 17 18 11 15 2 17 15 16 19 12 26 30 22 17 19 20 27 32 34 36 37 39 39 40 40 39 37 34 31 30 28 28 25 22 21 20
12 6 9 14 13 10 6 2 4 8 13 17 17 14 15 6 10 13 18 29 19 16 20 24 28 26 27 30 35 37 39 41 43 42 39 37 35 33 32 29 26 24 21 22
18 2 4 5 2 3 7 2 3 4 5 12 21 18 10 8 7 9 13 20 15 12 17 19 22 22 25 29 33 37 38 42 43 43 41 40 37 36 36 33 30 25 23 23
12 22 4 5 5 4 8 6 6 8 6 14 13 12 19 12 14 16 21 26 12 13 18 20 23 24 27 31 32 37 35 37 43 45 44 43 40 38 35 33 30 27 25 22
9 12 16 15 15 9 13 10 6 10 14 21 6 14 12 11 14 18 21 17 10 14 19 23 24 23 25 29 32 33 34 35 41 45 45 43 41 39 37 34 30 27 23 20
10 15 4 11 4 9 9 8 6 9 5 8 17 29 26 11 11 11 9 10 17 16 21 23 23 25 27 29 31 30 34 37 40 44 44 45 42 40 38 34 30 26 21 21
11 16 6 6 3 6 6 2 5 5 6 15 26 25 19 13 14 8 7 12 20 13 19 25 27 29 30 28 30 33 36 38 38 43 45 46 43 40 37 33 29 23 22 21
8 7 7 5 11 15 7 7 7 4 10 13 16 16 5 2 7 3 7 13 13 13 18 22 26 28 29 28 34 36 37 39 40 44 47 46 44 41 37 32 27 24 21 21
10 3 9 22 12 9 13 18 19 11 17 9 15 25 8 8 7 5 6 11 13 15 15 18 25 31 33 35 38 40 39 40 41 44 48 47 44 40 36 31 27 22 21 22
8 5 7 13 8 6 8 15 17 19 14 24 18 24 18 27 18 22 11 15 16 19 20 23 25 30 35 37 38 43 43 42 44 46 48 46 45 41 36 31 25 22 22 22
5 6 12 19 25 8 13 20 19 21 18 24 25 28 30 32 22 28 32 28 26 26 30 31 29 35 37 40 40 42 43 43 45 47 48 47 46 41 35 29 24 22 23 22
5 16 20 23 28 31 26 22 15 25 26 22 27 24 23 28 33 28 34 30 30 36 31 27 32 36 40 40 41 40 41 44 47 48 48 48 45 39 34 28 25 24 23 20
11 14 18 24 27 30 34 30 28 32 27 29 27 28 31 37 49 38 46 48 37 45 35 39 43 41 40 45 44 42 43 46 47 48 46 47 45 39 33 29 27 24 21 17
8 6 9 19 25 28 23 35 37 34 38 35 30 38 35 36 35 34 36 43 37 43 37 38 39 38 41 43 45 43 42 45 47 46 44 48 43 38 34 30 26 22 18 16
15 17 13 14 14 20 25 26 31 38 37 35 28 30 35 36 44 36 41 44 43 43 44 39 37 35 37 36 36 36 38 43 45 44 45 46 43 38 33 29 25 20 17 16
26 22 14 11 16 23 8 20 23 26 35 30 30 36 37 42 33 34 56 51 41 46 47 43 34 34 34 29 28 32 35 39 39 42 45 46 42 38 34 28 23 18 17 15
30 26 18 15 14 22 18 27 23 23 14 20 28 28 30 23 11 19 54 33 32 35 36 34 28 28 30 28 26 29 36 39 41 43 48 46 41 35 30 24 20 18 16 14
8 16 23 23 21 15 13 13 11 22 23 30 32 27 27 20 21 40 35 30 26 24 27 30 27 26 27 28 30 31 35 39 41 42 48 47 42 36 29 22 19 17 15 14
28 12 12 13 18 26 18 24 29 30 36 32 32 33 29 34 37 37 43 41 41 41 35 35 32 30 31 31 31 34 37 40 44 46 50 46 40 34 26 23 20 17 14 13
20 17 11 17 14 13 21 27 38 42 43 41 41 43 38 30 26 29 31 37 36 39 37 37 36 36 35 36 36 40 41 44 43 51 50 45 37 31 27 23 20 16 12 11
12 11 5 14 10 15 27 38 26 25 26 32 34 32 28 26 30 38 39 38 37 38 37 37 37 38 39 39 38 40 44 41 45 52 47 42 37 32 26 23 18 13 12 11
13 16 18 26 29 25 23 31 38 36 38 36 37 37 36 38 40 40 42 45 42 43 42 40 41 42 42 39 40 45 45 44 53 51 49 44 37 31 26 21 16 13 10 9
15 19 16 19 25 20 20 37 45 41 39 39 34 37 37 35 37 35 39 41 43 43 50 48 44 44 44 41 44 47 44 48 56 54 49 42 35 30 26 23 18 13 9 6
Wind_Direction
195 229 241 255 244 250 275 283 276 273 273 224 247 262 270 275 279 275 276 274 267 258 253 233 227 217 218 214 217 218 220 221 223 225 226 231 234 234 233 234 241 254 267 282
218 240 255 279 288 268 259 265 267 274 294 210 272 270 271 267 267 273 274 272 274 266 232 227 217 210 215 219 222 220 221 223 226 227 230 232 233 234 232 234 240 249 264 284
240 256 84 259 255 249 244 250 260 273 304 241 267 277 261 248 255 260 269 267 268 253 234 217 209 211 213 220 224 223 223 225 228 229 231 232 233 234 231 233 240 250 265 276
251 260 257 247 253 246 259 264 254 269 282 276 77 287 283 285 265 240 267 273 267 233 228 214 207 211 219 223 226 227 226 228 231 232 234 235 238 235 234 235 240 250 262 273
235 223 221 232 245 226 238 3 249 258 259 281 264 270 279 196 264 231 248 261 274 242 233 206 213 219 222 221 226 228 229 231 233 234 233 234 234 234 235 237 241 251 262 273
259 69 243 235 106 241 122 229 227 231 267 259 262 245 277 232 226 232 250 248 250 238 210 207 210 212 216 221 225 226 227 233 234 234 234 234 234 235 236 238 242 249 260 271
223 226 180 197 209 164 204 214 273 255 222 264 281 263 257 277 251 257 263 267 237 220 198 197 204 212 216 219 220 222 224 233 234 232 233 233 233 234 236 238 241 248 257 267
252 243 192 196 221 261 198 216 219 264 264 283 101 265 266 238 233 237 248 248 219 200 205 207 213 223 222 222 220 218 223 231 235 233 232 232 231 232 233 237 242 249 256 266
225 250 122 180 184 185 167 204 252 272 266 281 270 271 270 234 198 223 219 225 233 217 216 216 224 230 224 224 221 223 226 230 234 235 232 231 231 229 231 235 241 247 255 265
257 262 173 125 197 228 237 43 190 205 260 256 278 279 279 274 229 215 233 238 252 224 228 233 236 233 227 230 226 226 229 234 234 235 233 231 228 228 229 232 239 245 256 267
236 227 238 143 201 217 190 224 220 295 239 252 268 271 48 31 135 298 224 247 242 225 231 241 246 238 235 238 233 229 229 230 231 234 233 230 226 224 226 230 234 242 255 268
214 236 232 237 246 246 247 229 220 222 233 233 250 268 130 111 107 141 220 232 246 242 239 252 250 241 237 241 236 233 232 231 233 233 231 228 223 222 224 227 232 242 257 268
176 210 237 259 230 168 211 224 240 240 251 247 247 249 267 272 278 278 245 237 243 247 246 255 244 247 253 244 242 238 235 233 230 230 230 225 219 219 221 225 232 243 255 266
23 238 229 241 251 260 219 230 225 228 233 248 246 262 273 282 282 275 275 271 268 256 256 258 249 256 258 255 250 243 238 234 231 230 229 224 217 217 218 222 231 244 254 264
297 272 268 256 264 275 273 262 229 225 235 243 260 261 266 277 274 276 278 278 282 275 274 264 251 254 261 257 250 243 241 237 232 229 227 220 215 213 214 219 230 241 252 263
238 249 255 261 265 268 273 271 268 264 264 260 255 258 259 261 269 274 271 276 277 277 277 271 267 265 259 261 260 254 242 234 231 229 226 216 211 210 213 219 229 239 250 264
195 210 223 244 244 247 252 244 247 251 254 252 253 251 259 264 262 261 276 276 276 277 277 274 272 265 264 262 263 256 242 232 230 227 222 214 209 209 213 219 228 237 249 266
225 218 226 257 258 234 240 246 235 246 253 260 255 257 255 257 270 286 275 267 273 273 274 276 276 272 269 266 257 247 238 234 230 226 221 210 208 208 215 221 228 237 250 266
222 230 239 237 233 249 307 233 224 227 240 246 256 254 256 267 273 273 266 263 259 264 272 274 272 272 273 262 251 241 231 228 225 223 213 207 208 209 214 220 228 237 252 266
227 226 229 232 241 242 230 226 243 243 242 231 241 252 261 263 236 253 264 265 262 270 273 269 267 266 264 252 240 233 228 224 222 220 208 203 206 211 217 220 228 240 253 268
209 225 230 233 244 246 238 237 231 241 252 234 242 250 260 258 243 258 271 274 269 264 265 264 259 254 249 242 235 229 226 225 223 214 203 202 204 208 214 221 230 240 252 269
236 222 219 234 244 249 219 232 233 244 252 253 256 254 253 258 262 254 257 258 264 264 259 256 252 250 243 237 232 228 224 220 217 205 198 201 201 205 213 221 231 236 249 268
249 265 292 266 253 250 232 228 249 257 254 258 263 265 280 295 283 274 262 268 271 271 257 249 245 241 238 236 232 228 223 218 210 197 195 196 199 207 213 220 223 232 245 266
291 295 277 331 345 321 311 310 345 357 352 331 325 331 331 322 308 300 299 294 286 280 273 256 246 240 238 236 230 226 225 215 201 194 191 193 201 206 211 216 221 230 245 261
284 307 293 292 290 291 306 308 309 307 308 311 309 310 313 313 305 300 299 299 290 288 275 269 264 255 246 237 225 223 219 209 194 191 193 196 199 202 206 210 213 219 237 256
273 277 274 277 298 308 313 313 309 309 306 304 301 301 295 288 286 292 295 294 291 287 285 275 264 254 248 233 223 222 215 200 191 190 190 192 196 199 206 202 201 210 219 246